Flag for Belgium Weather past 2 weeks in Eupen, Belgium

Now
72 °F

Partly sunny.


Feels Like: 74 °F
Forecast: 60 / 79 °F
Wind: 5 mph from Northeast

Location: Spa / La Sauveniere

Current Time: Jul 22, 2014 at 10:21:09 PM

Latest Report: Jul 22, 2014 at 6:00 PM


Visibility: 10 mi

Pressure: 30.04 "Hg

Humidity: 73%

Dew point: 63 °F

Location of EupenLocation

Historic Weather in Eupen — Graph

°F

Eupen temperature yesterday

Maximum temperature yesterday: 64 °F (at 12:00 AM)
Minimum temperature yesterday: 60 °F (at 11:00 PM)
Average temperature yesterday: 62 °F

Past Weeks' High & Low Weather Summary

 TemperatureHumidityPressure
High87 °F (Jul 18, 6:00 PM)100% (Jul 8, 5:00 AM)30.22 "Hg (Jul 8, 5:00 AM)
Low49 °F (Jul 9, 10:00 AM)32% (Jul 18, 4:00 PM)29.74 "Hg (Jul 9, 7:00 PM)
Average64 °F81%29.97 "Hg
* Reported Jul 7 8:00 PM — Jul 22 6:00 PM, Eupen, Weather by CustomWeather, © 2014

Note: Actual official high and low records may vary slightly from our data, if they occured in-between our weather recording intervals... More about our weather records

Advertising

Eupen weather history for previous 24 hours

 ConditionsComfort  
Time TempWeatherWind HumidityBarometerVisibility
6:00 PM
Jul 22
72 °FPartly sunny.5 mph73%30.04 "Hg10 mi
5:00 PM72 °FPassing clouds.5 mph71%30.05 "Hg14 mi
4:00 PM73 °FPartly sunny.5 mph70%30.05 "Hg9 mi
3:00 PM71 °FPartly sunny.3 mph68%30.05 "Hg7 mi
2:00 PM69 °FSunny.5 mph71%30.06 "HgN/A
1:00 PM69 °FScattered clouds.5 mph79%30.06 "HgN/A
12:00 PM66 °FFog.3 mph92%30.06 "Hg3 mi
11:00 AM65 °FLow clouds.3 mph94%30.05 "Hg2 mi
10:00 AM63 °FLow clouds.5 mph98%30.05 "HgN/A
9:00 AM63 °FDrizzle. Dense fog.5 mph100%30.04 "Hg0 mi
8:00 AM63 °FDrizzle. Dense fog.3 mph100%30.03 "Hg0 mi
7:00 AM63 °FDrizzle. Dense fog.2 mph100%30.02 "Hg0 mi
6:00 AM62 °FDrizzle. Dense fog.2 mph100%30.01 "Hg0 mi
5:00 AM62 °FLight rain. Dense fog.3 mph100%30.01 "Hg0 mi
3:00 AM62 °FDrizzle. Dense fog.3 mph100%30.01 "Hg0 mi
2:00 AM61 °FDrizzle. Dense fog.3 mph100%30.02 "Hg0 mi
1:00 AM61 °FDrizzle. Dense fog.3 mph100%30.01 "Hg0 mi
12:00 AM61 °FDrizzle. Dense fog.3 mph100%30.01 "Hg0 mi
11:00 PM
Jul 21
60 °FDrizzle. Dense fog.3 mph100%30.01 "Hg0 mi
10:00 PM61 °FDrizzle. Dense fog.5 mph99%30.00 "Hg0 mi
Weather by CustomWeather, © 2014

See weather overviewHow to use our weather pages